カタログに戻る

BLACKJACK ACES-2

運用中軍事SSO
NORAD 56955·PAYLOAD·🇺🇸 United States

打ち上げ Jun 12, 2023 から Vandenberg Space Force Base

Loading…

次のパス (今後24時間)

TLE

最新Source: Space-Track

元期: Sep 13, 2026, 22:07 UTC

1 56955U 23084Z   26256.92183796  .00005271  00000-0  25689-3 0  9991
2 56955  97.6333  32.9693 0001893  67.1221 293.0212 15.18779182180642

AllMySatでBLACKJACK ACES-2をリアルタイム追跡

Download on the App Store